Regional Weather Roundup
Issued by NWS

Home | Current Version | Previous Version | Graphics & Text | Print | Product List | Glossary On
Versions: 1 2 3 4 5 6 7 8 9 10 11 12 13 14 15 16 17 18 19 20 21 22 23 24 25 26 27 28 29 30 31 32 33 34 35 36 37 38 39 40 41 42 43 44 45 46 47 48
000
ASUS43 KDMX 050507
RWRIA

WEATHER ROUNDUP FOR IOWA
NATIONAL WEATHER SERVICE DES MOINES IA
1200 AM CDT SUN JUL 05 2015

NOTE: "FAIR" INDICATES FEW OR NO CLOUDS BELOW 12,000 FEET WITH NO
SIGNIFICANT WEATHER AND/OR OBSTRUCTIONS TO VISIBILITY.

* - THESE STATIONS ARE NOT NWS STATIONS...THUS NOT UNDER NWS
QUALITY CONTROL.  THEY ALSO DO NOT REPORT WEATHER SUCH
AS PRECIPITATION OR FOG.

IAZ001>003-012>014-020>022-031>034-043>046-050600-
   NORTHWEST IOWA

CITY           SKY/WX    TMP DP  RH WIND       PRES   REMARKS
CARROLL *      CLOUDY    63  61  94 S6        29.98R
CHEROKEE *     CLEAR     64  63  94 S3        29.95S
DENISON *      MOCLDY    66  61  82 SE9       29.95S
LE MARS *        N/A     68  63  83 S9        29.94R
ORANGE CITY *  CLEAR     64  61  88 SE3       29.94R
SHELDON *      MOCLDY    64  64 100 SE9       29.93S
SIOUX CITY     CLEAR     70  62  76 SE9       29.93R
SPENCER        CLEAR     64  58  80 S7        29.96R
STORM LAKE *   CLEAR     64  61  88 S8        29.98R
$$

IAZ055>058-069>071-079>083-090>094-050600-
   SOUTHWEST IOWA

CITY           SKY/WX    TMP DP  RH WIND       PRES   REMARKS
ATLANTIC *     CLOUDY    64  61  88 CALM      29.99R
AUDUBON *      CLEAR     61  57  88 CALM      30.00R
CLARINDA *     CLEAR     66  63  88 CALM      30.00R
COUNCIL BLFS * PTCLDY    68  63  83 S9        29.97S
CRESTON *      CLEAR     66  63  88 SE6       30.00S
HARLAN  *      CLEAR     63  63 100 CALM      30.01R
LAMONI         CLEAR     69  62  78 S6        30.00R
RED OAK *      MOCLDY    64  63  94 CALM      29.99R
SHENANDOAH *     N/A     66  63  88 SE6       29.99R
$$

IAZ047>049-059>061-072>074-084-050600-
   CENTRAL IOWA

CITY           SKY/WX    TMP DP  RH WIND       PRES   REMARKS
AMES           CLEAR     63  60  90 SE7       29.99R
ANKENY *       PTCLDY    63  63 100 CALM      29.99R FOG
CHARITON *     CLEAR     66  61  82 SE6       30.00S
DES MOINES     PTCLDY    69  60  73 S6        29.99R
GRINNELL*      CLEAR     66  61  82 SE6       30.02R
KNOXVILLE *    CLEAR     66  61  82 SE6       29.99S
MARSHALLTOWN   CLEAR     66  60  81 S6        30.00R
PELLA *        CLEAR     66  64  95 SE3       30.01S
PERRY *          N/A     63  61  94 S7        29.99R
$$

IAZ004>006-015-016-023>025-035-036-050600-
   NORTH CENTRAL IOWA

CITY           SKY/WX    TMP DP  RH WIND       PRES   REMARKS
ALGONA *       PTCLDY    68  61  77 SE9       29.98R
CLARION *      CLEAR     64  59  82 S7        29.99R
ESTHERVILLE    CLEAR     61  58  90 S7        29.96S
FORT DODGE *   CLEAR     66  59  77 SE5       29.99R
MASON CITY     CLEAR     62  59  90 S6        30.00R
FOREST CITY *  CLEAR     61  61 100 S7        29.99R
IOWA FALLS *     N/A     63  59  88 SE5       30.01R
$$

IAZ007>011-017>019-026>030-037>042-050>054-066-050600-
   NORTHEAST IOWA

CITY           SKY/WX    TMP DP  RH WIND       PRES   REMARKS
CEDAR RAPIDS   CLEAR     65  62  90 SE5       30.00S
CHARLES CITY * CLEAR     64  64 100 S6        30.01R
CLINTON *      CLEAR     66  61  82 S6        30.04F
DECORAH *        N/A    N/A N/A N/A MISG        N/A
DUBUQUE        CLEAR     64  60  87 CALM      30.02S
MONTICELLO *   CLEAR     63  63 100 SE3       30.01S
OELWEIN *      CLEAR     63  61  94 S6        30.02R
WATERLOO       CLEAR     66  60  81 S6        29.99R
$$

IAZ064-065-067-068-078-050600-
   EAST CENTRAL IOWA

CITY           SKY/WX    TMP DP  RH WIND       PRES   REMARKS
DAVENPORT      CLEAR     64  60  87 S5        30.03R FOG
IOWA CITY      CLEAR     67  61  81 SE3       30.02R
MT. PLEASANT * CLEAR     66  59  77 SE3       30.02R
MUSCATINE *    CLEAR     63  61  94 CALM      30.02R
QUAD CITIES    CLEAR     65  60  84 CALM      30.02R
$$

IAZ062-063-075>077-085>089-095>099-050600-
   SOUTHEAST IOWA

CITY           SKY/WX    TMP DP  RH WIND       PRES   REMARKS
BURLINGTON     CLEAR     69  63  81 SE6       30.02R
FAIRFIELD *    CLEAR     66  61  82 SE5       30.02R
FORT MADISON * CLEAR     66  63  88 SE5       30.03R
KEOKUK *       CLEAR     68  64  88 SE6       30.01S
OSKALOOSA *      N/A     63  61  94 SE3       30.02R
CENTERVILLE *  CLEAR     64  63  94 SE3       30.03R
OTTUMWA        CLEAR     65  62  90 S6        30.00R
WASHINGTON *   CLEAR     63  61  94 SE7       30.03R
$$

ABBREVIATIONS USED IN REMARKS
   TC - TEMPERATURES IN CELSIUS
  WCI - WIND CHILL INDEX
   HX - HEAT INDEX
  VSB - VISIBILITY
$$



USA.gov is the U.S. government's official web portal to all federal, state and local government web resources and services.